This demonstration page uses our WeatherBlox Daily Observations layout. Learn more.

Hourly Observations for July 16, 2017

Temp ( °F °C ) Dew Point ( °F °C ) Humidity (%) Winds ( mph kmh ) Pressure ( in mb ) Visibility ( mi km ) Precip ( " mm )
12:54 am 00:54 Clear 75 23.9 67 19.4 76 76 S 5 7 30.02 1017 10 16.0934 0 0
1:54 am 01:54 Clear 74 23.3 66 18.9 76 76 Calm 30.02 1017 10 16.0934 0 0
2:54 am 02:54 Clear 73 22.8 66 18.9 79 79 Calm 30.02 1017 10 16.0934 0 0
3:54 am 03:54 Clear 71 21.7 66 18.9 84 84 Calm 30.01 1016 10 16.0934 0 0
4:54 am 04:54 Clear 71 21.7 66 18.9 84 84 Calm 30.01 1016 10 16.0934 0 0
5:54 am 05:54 Clear 69 20.6 66 18.9 90 90 S 3 6 30.01 1016 10 16.0934 0 0
6:54 am 06:54 Mostly Cloudy 70 21.1 67 19.4 90 90 S 5 7 30.03 1017 10 16.0934 0 0
7:54 am 07:54 Mostly Sunny 76 24.4 68 20 77 77 Calm 30.04 1017 10 16.0934 0 0
8:54 am 08:54 Partly Cloudy 77 25 68 20 74 74 Calm 30.04 1017 10 16.0934 0 0
9:54 am 09:54 Sunny 80 26.7 71 21.7 74 74 SSW 5 7 30.03 1017 10 16.0934 0 0
10:54 am 10:54 Sunny 86 30 73 22.8 65 65 SW 5 7 30.02 1017 10 16.0934 0 0
11:54 am 11:54 Sunny 88 31.1 72 22.2 59 59 SW 6 9 30.01 1016 10 16.0934 0 0
12:54 pm 12:54 Sunny 91 32.8 71 21.7 52 52 WSW 9 15 29.99 1016 10 16.0934 0 0
1:54 pm 13:54 Sunny 93 33.9 70 21.1 47 47 SW 8 13 29.98 1015 10 16.0934 0 0
2:54 pm 14:54 Sunny 93 33.9 70 21.1 47 47 VRB 6 9 29.96 1015 10 16.0934 0 0
3:54 pm 15:54 Mostly Sunny 92 33.3 71 21.7 51 51 S 7 11 29.95 1014 10 16.0934 0 0
4:54 pm 16:54 Sunny 94 34.4 70 21.1 46 46 SSW 8 13 29.92 1013 10 16.0934 0 0
5:54 pm 17:54 Sunny 93 33.9 70 21.1 47 47 SSW 6 9 29.92 1013 10 16.0934 0 0
6:54 pm 18:54 Sunny 92 33.3 68 20 46 46 SSW 3 6 29.91 1013 10 16.0934 0 0
7:54 pm 19:54 Sunny 89 31.7 71 21.7 55 55 S 5 7 29.9 1013 10 16.0934 0 0
8:54 pm 20:54 Sunny 88 31.1 68 20 52 52 S 3 6 29.9 1013 10 16.0934 0 0
9:54 pm 21:54 Clear 83 28.3 70 21.1 65 65 Calm 29.93 1013 10 16.0934 0 0
10:54 pm 22:54 Clear 81 27.2 72 22.2 74 74 Calm 29.93 1014 10 16.0934 0 0
11:54 pm 23:54 Clear 81 27.2 72 22.2 74 74 SW 5 7 29.93 1013 10 16.0934 0 0

Powered by AerisWeather